JAL2332 RJNO-RJOO

Flight info

Callsign JAL2332
Flight time 0h 36m
Altitude 27000
Route TSUNO Y38 ROKKO KAMEO OTABE ABENO IKOMA
Aircraft E170/M-SDFLOVE2GIRW/SB1

Departure

Time 2026-04-20 12:08
Airport Oki Global Geopark Airport (RJNO)

Arrival

Time 2026-04-20 12:44
Airport Osaka Itami International Airport (RJOO)
Time Latitude Longitude Altitude Speed Heading
2026-04-20 11:34 36.17836 133.32985 274 ft 0 kts 248°
2026-04-20 12:02 36.17837 133.32975 277 ft 2 kts 301°
2026-04-20 12:02 36.17853 133.32969 275 ft 5 kts
2026-04-20 12:02 36.17877 133.32954 274 ft 7 kts 320°
2026-04-20 12:02 36.17923 133.32921 275 ft 9 kts 339°
2026-04-20 12:03 36.17940 133.32913 275 ft 0 kts 339°
2026-04-20 12:03 36.17964 133.32900 274 ft 10 kts 336°
2026-04-20 12:03 36.17997 133.32835 274 ft 10 kts 259°
2026-04-20 12:03 36.17972 133.32749 274 ft 12 kts 247°
2026-04-20 12:04 36.17931 133.32630 275 ft 17 kts 247°
2026-04-20 12:04 36.17880 133.32475 273 ft 21 kts 248°
2026-04-20 12:04 36.17823 133.32302 270 ft 22 kts 247°
2026-04-20 12:04 36.17765 133.32116 266 ft 23 kts 248°
2026-04-20 12:05 36.17709 133.31950 266 ft 20 kts 248°
2026-04-20 12:05 36.17651 133.31784 267 ft 22 kts 245°
2026-04-20 12:05 36.17605 133.31629 269 ft 18 kts 248°
2026-04-20 12:05 36.17556 133.31475 265 ft 18 kts 247°
2026-04-20 12:06 36.17504 133.31390 265 ft 9 kts 221°
2026-04-20 12:06 36.17491 133.31332 264 ft 4 kts 319°
2026-04-20 12:06 36.17511 133.31341 264 ft 2 kts 68°
2026-04-20 12:06 36.17516 133.31354 264 ft 0 kts 69°
2026-04-20 12:07 36.17516 133.31355 264 ft 0 kts 69°
2026-04-20 12:07 36.17550 133.31463 265 ft 46 kts 69°
2026-04-20 12:07 36.17785 133.32189 267 ft 134 kts 69°
2026-04-20 12:07 36.18205 133.33478 676 ft 170 kts 70°
2026-04-20 12:08 36.18527 133.34924 1422 ft 191 kts 91°
2026-04-20 12:08 36.18284 133.36489 2052 ft 186 kts 129°
2026-04-20 12:08 36.17503 133.37713 2802 ft 177 kts 150°
2026-04-20 12:08 36.16449 133.38462 3403 ft 180 kts 169°
2026-04-20 12:09 36.15251 133.39042 4083 ft 187 kts 169°
2026-04-20 12:09 36.13971 133.39634 4746 ft 206 kts 169°
2026-04-20 12:09 36.12571 133.40226 5389 ft 223 kts 172°
2026-04-20 12:09 36.11019 133.40750 6038 ft 240 kts 173°
2026-04-20 12:10 36.09332 133.41296 6244 ft 263 kts 173°
2026-04-20 12:10 36.07537 133.41902 5924 ft 262 kts 171°
2026-04-20 12:10 36.05811 133.42572 6508 ft 267 kts 163°
2026-04-20 12:10 36.04225 133.43872 7331 ft 279 kts 149°
2026-04-20 12:11 36.02700 133.45400 8157 ft 283 kts 147°
2026-04-20 12:11 36.01176 133.46962 8978 ft 286 kts 147°
2026-04-20 12:11 35.99624 133.48537 9709 ft 290 kts 147°
2026-04-20 12:11 35.98063 133.50110 10269 ft 299 kts 148°
2026-04-20 12:12 35.96400 133.51778 10584 ft 316 kts 147°
2026-04-20 12:12 35.94676 133.53520 11142 ft 323 kts 147°
2026-04-20 12:12 35.92929 133.55285 11848 ft 326 kts 147°
2026-04-20 12:12 35.91148 133.57074 12780 ft 332 kts 147°
2026-04-20 12:13 35.89339 133.58879 13840 ft 337 kts 147°
2026-04-20 12:13 35.87493 133.60716 14753 ft 345 kts 148°
2026-04-20 12:13 35.85595 133.62609 15722 ft 355 kts 148°
2026-04-20 12:13 35.83650 133.64561 16620 ft 365 kts 148°
2026-04-20 12:14 35.81686 133.66538 17501 ft 374 kts 149°
2026-04-20 12:14 35.79648 133.68583 18318 ft 382 kts 149°
2026-04-20 12:14 35.77572 133.70670 19090 ft 388 kts 149°
2026-04-20 12:14 35.75460 133.72797 19871 ft 395 kts 149°
2026-04-20 12:15 35.73318 133.74956 20635 ft 401 kts 149°
2026-04-20 12:15 35.71142 133.77150 21388 ft 407 kts 148°
2026-04-20 12:15 35.68928 133.79384 22120 ft 414 kts 148°
2026-04-20 12:15 35.66685 133.81648 22821 ft 420 kts 148°
2026-04-20 12:16 35.64436 133.83921 23432 ft 427 kts 148°
2026-04-20 12:16 35.62129 133.86262 24015 ft 430 kts 148°
2026-04-20 12:16 35.59815 133.88600 24612 ft 433 kts 148°
2026-04-20 12:16 35.57467 133.90969 25219 ft 436 kts 148°
2026-04-20 12:17 35.55116 133.93345 25814 ft 439 kts 148°
2026-04-20 12:17 35.52750 133.95737 26386 ft 442 kts 148°
2026-04-20 12:17 35.50365 133.98151 26969 ft 445 kts 148°
2026-04-20 12:17 35.47939 134.00602 27042 ft 460 kts 147°
2026-04-20 12:18 35.45447 134.03128 26899 ft 461 kts 147°
2026-04-20 12:18 35.43034 134.05590 26869 ft 453 kts 147°
2026-04-20 12:18 35.40575 134.08067 26908 ft 462 kts 148°
2026-04-20 12:18 35.38085 134.10574 26916 ft 463 kts 147°
2026-04-20 12:19 35.35600 134.13088 26893 ft 463 kts 146°
2026-04-20 12:19 35.33361 134.15991 26923 ft 477 kts 130°
2026-04-20 12:19 35.31876 134.19659 26928 ft 487 kts 110°
2026-04-20 12:19 35.31079 134.23706 26948 ft 490 kts 102°
2026-04-20 12:20 35.30494 134.27847 26700 ft 495 kts 101°
2026-04-20 12:20 35.29902 134.32008 26316 ft 497 kts 102°
2026-04-20 12:20 35.29253 134.36133 25602 ft 500 kts 103°
2026-04-20 12:20 35.28555 134.40285 24912 ft 494 kts 103°
2026-04-20 12:21 35.27848 134.44372 24256 ft 486 kts 103°
2026-04-20 12:21 35.27141 134.48403 23612 ft 482 kts 104°
2026-04-20 12:21 35.26409 134.52391 22703 ft 478 kts 105°
2026-04-20 12:21 35.25660 134.56290 22177 ft 466 kts 105°
2026-04-20 12:22 35.24932 134.60113 21589 ft 456 kts 105°
2026-04-20 12:22 35.24227 134.63853 20995 ft 445 kts 104°
2026-04-20 12:22 35.23547 134.67501 20449 ft 435 kts 105°
2026-04-20 12:22 35.22875 134.71085 19854 ft 431 kts 105°
2026-04-20 12:23 35.22207 134.74635 19312 ft 426 kts 105°
2026-04-20 12:23 35.21557 134.78121 18742 ft 423 kts 105°
2026-04-20 12:23 35.20907 134.81603 18208 ft 418 kts 106°
2026-04-20 12:23 35.20253 134.85039 17627 ft 411 kts 105°
2026-04-20 12:24 35.19631 134.88420 17140 ft 405 kts 105°
2026-04-20 12:24 35.18999 134.91769 16592 ft 401 kts 106°
2026-04-20 12:24 35.18366 134.95064 16087 ft 394 kts 106°
2026-04-20 12:24 35.17743 134.98304 15558 ft 389 kts 106°
2026-04-20 12:25 35.17132 135.01497 15047 ft 383 kts 105°
2026-04-20 12:25 35.16533 135.04646 14565 ft 377 kts 105°
2026-04-20 12:25 35.15950 135.07703 14082 ft 372 kts 105°
2026-04-20 12:25 35.15367 135.10757 13574 ft 366 kts 105°
2026-04-20 12:26 35.14792 135.13761 13191 ft 359 kts 105°
2026-04-20 12:26 35.14220 135.16745 12706 ft 362 kts 105°
2026-04-20 12:26 35.13647 135.19729 12237 ft 359 kts 105°
2026-04-20 12:26 35.13077 135.22696 11773 ft 356 kts 105°
2026-04-20 12:27 35.12510 135.25629 11290 ft 352 kts 105°
2026-04-20 12:27 35.11909 135.28429 11096 ft 334 kts 113°
2026-04-20 12:27 35.10803 135.30820 10830 ft 316 kts 135°
2026-04-20 12:27 35.09197 135.32601 10537 ft 309 kts 145°
2026-04-20 12:28 35.07514 135.34239 10172 ft 308 kts 146°
2026-04-20 12:28 35.05863 135.35851 9797 ft 300 kts 145°
2026-04-20 12:28 35.04276 135.37451 9419 ft 292 kts 144°
2026-04-20 12:28 35.02717 135.39013 9020 ft 287 kts 145°
2026-04-20 12:29 35.01210 135.40540 8645 ft 282 kts 144°
2026-04-20 12:29 34.99719 135.42089 8276 ft 281 kts 144°
2026-04-20 12:29 34.98227 135.43610 7897 ft 278 kts 145°
2026-04-20 12:29 34.96743 135.45102 7536 ft 275 kts 144°
2026-04-20 12:30 34.95280 135.46592 7160 ft 273 kts 145°
2026-04-20 12:30 34.93834 135.48048 7046 ft 261 kts 145°
2026-04-20 12:30 34.92410 135.49465 7061 ft 267 kts 144°
2026-04-20 12:30 34.90963 135.50911 7076 ft 271 kts 144°
2026-04-20 12:31 34.89497 135.52378 6971 ft 273 kts 144°
2026-04-20 12:31 34.88050 135.53839 7003 ft 270 kts 144°
2026-04-20 12:31 34.86649 135.55373 6989 ft 273 kts 136°
2026-04-20 12:31 34.85459 135.57203 6807 ft 276 kts 131°
2026-04-20 12:32 34.84299 135.59047 6629 ft 273 kts 132°
2026-04-20 12:32 34.83151 135.60873 6449 ft 271 kts 132°
2026-04-20 12:32 34.82013 135.62697 6284 ft 270 kts 131°
2026-04-20 12:32 34.80868 135.64513 6112 ft 269 kts 131°
2026-04-20 12:33 34.79727 135.66312 6015 ft 265 kts 132°
2026-04-20 12:33 34.78597 135.68096 6037 ft 268 kts 132°
2026-04-20 12:33 34.77450 135.69905 5927 ft 269 kts 132°
2026-04-20 12:33 34.76295 135.71680 5567 ft 263 kts 136°
2026-04-20 12:34 34.74824 135.72857 5243 ft 249 kts 166°
2026-04-20 12:34 34.73158 135.73274 4894 ft 244 kts 172°
2026-04-20 12:34 34.71481 135.73634 4437 ft 244 kts 172°
2026-04-20 12:34 34.69825 135.73975 3995 ft 245 kts 172°
2026-04-20 12:35 34.68132 135.74302 3531 ft 246 kts 173°
2026-04-20 12:35 34.66492 135.74086 3495 ft 230 kts 200°
2026-04-20 12:35 34.65064 135.73349 3476 ft 219 kts 202°
2026-04-20 12:35 34.63692 135.72645 3500 ft 211 kts 202°
2026-04-20 12:36 34.62374 135.71879 3506 ft 210 kts 207°
2026-04-20 12:36 34.61244 135.70758 3504 ft 216 kts 237°
2026-04-20 12:36 34.60600 135.69109 3543 ft 215 kts 244°
2026-04-20 12:36 34.60340 135.67372 3416 ft 213 kts 279°
2026-04-20 12:37 34.60965 135.65793 3481 ft 197 kts 298°
2026-04-20 12:37 34.61523 135.64334 3588 ft 193 kts 289°
2026-04-20 12:37 34.62377 135.63046 3562 ft 199 kts 318°
2026-04-20 12:37 34.63446 135.61974 3584 ft 198 kts 313°
2026-04-20 12:38 34.64376 135.60771 3580 ft 199 kts 309°
2026-04-20 12:38 34.65367 135.59551 3276 ft 202 kts 314°
2026-04-20 12:38 34.66365 135.58387 3006 ft 196 kts 313°
2026-04-20 12:38 34.67300 135.57238 2750 ft 185 kts 312°
2026-04-20 12:39 34.69028 135.55146 2284 ft 164 kts 313°
2026-04-20 12:39 34.69818 135.54186 2082 ft 163 kts 313°
2026-04-20 12:39 34.70636 135.53192 1851 ft 167 kts 313°
2026-04-20 12:40 34.71454 135.52196 1657 ft 165 kts 312°
2026-04-20 12:40 34.71954 135.51010 1513 ft 158 kts 281°
2026-04-20 12:40 34.72207 135.49728 1447 ft 156 kts 282°
2026-04-20 12:40 34.72450 135.48497 1389 ft 148 kts 281°
2026-04-20 12:41 34.72689 135.47284 1296 ft 147 kts 287°
2026-04-20 12:41 34.73173 135.46185 1216 ft 148 kts 306°
2026-04-20 12:41 34.73879 135.45274 1164 ft 148 kts 313°
2026-04-20 12:41 34.74604 135.44382 1100 ft 148 kts 313°
2026-04-20 12:42 34.75331 135.43482 1063 ft 148 kts 313°
2026-04-20 12:42 34.76045 135.42579 1000 ft 148 kts 313°
2026-04-20 12:42 34.76762 135.41681 897 ft 148 kts 313°
2026-04-20 12:42 34.77479 135.40788 812 ft 145 kts 313°
2026-04-20 12:43 34.78194 135.39928 825 ft 142 kts 322°
2026-04-20 12:43 34.79155 135.39653 822 ft 152 kts 11°
2026-04-20 12:43 34.80060 135.40263 700 ft 147 kts 56°
2026-04-20 12:43 34.80286 135.41435 492 ft 146 kts 95°
2026-04-20 12:44 34.79878 135.42460 208 ft 131 kts 140°
2026-04-20 12:44 34.79250 135.43203 49 ft 115 kts 136°
2026-04-20 12:44 34.78803 135.43742 46 ft 63 kts 135°
2026-04-20 12:44 34.78600 135.43988 47 ft 25 kts 136°
2026-04-20 12:45 34.78547 135.44082 48 ft 10 kts 94°
2026-04-20 12:45 34.78577 135.44141 48 ft 8 kts 42°
2026-04-20 12:45 34.78628 135.44134 48 ft 9 kts 328°
2026-04-20 12:45 34.78680 135.44081 48 ft 9 kts 313°
2026-04-20 12:46 34.78733 135.44014 45 ft 13 kts 315°
2026-04-20 12:46 34.78797 135.43937 48 ft 14 kts 315°
2026-04-20 12:46 34.78865 135.43852 47 ft 14 kts 314°
2026-04-20 12:46 34.78915 135.43790 44 ft 11 kts 315°
2026-04-20 12:47 34.78974 135.43720 46 ft 13 kts 315°
2026-04-20 12:47 34.79031 135.43651 48 ft 11 kts 315°
2026-04-20 12:47 34.79091 135.43578 46 ft 13 kts 314°
2026-04-20 12:47 34.79159 135.43494 48 ft 13 kts 315°
2026-04-20 12:48 34.79222 135.43469 48 ft 9 kts 16°
2026-04-20 12:48 34.79271 135.43517 48 ft 7 kts 45°
2026-04-20 12:48 34.79288 135.43564 48 ft 8 kts 78°
2026-04-20 12:48 34.79303 135.43633 45 ft 6 kts 58°
2026-04-20 12:49 34.79323 135.43668 48 ft 9 kts 55°
2026-04-20 12:49 34.79355 135.43725 48 ft 7 kts 67°
2026-04-20 12:49 34.79342 135.43757 47 ft 3 kts 159°
2026-04-20 12:49 34.79319 135.43764 47 ft 3 kts 163°
2026-04-20 12:50 34.79299 135.43771 48 ft 2 kts 164°
2026-04-20 12:50 34.79292 135.43773 47 ft 0 kts 164°